Home   Weather   Celle   Past weeks

Flag for Germany Past Weather in Celle, Lower Saxony, Germany — Yesterday and Last 2 Weeks

Now
21 °F

Ice fog.


Feels Like: 21 °F
Forecast: 22 / 34 °F
Wind: 2 mph from East

Location: Celle Airport

Current Time: Dec 5, 2016 at 3:33:43 am

Latest Report: Dec 5, 2016 at 2:20 am


Visibility: 3 mi

Pressure: 30.39 "Hg

Humidity: 100%

Dew Point: 21 °F

Location of CelleLocation

Past Weather in Celle — Graph

°F

Celle Temperature Yesterday

Maximum temperature yesterday: 34 °F (at 1:20 pm)
Minimum temperature yesterday: 19 °F (at 4:20 am)
Average temperature yesterday: 24 °F

High & Low Weather Summary for the Past Weeks

 TemperatureHumidityPressure
High57 °F (Nov 21, 11:20 am)100% (Nov 22, 11:20 pm)30.60 "Hg (Nov 22, 11:20 pm)
Low18 °F (Nov 29, 3:20 am)49% (Dec 2, 2:20 pm)29.42 "Hg (Nov 20, 1:20 pm)
Average37 °F87%30.15 "Hg
* Reported Nov 20 2:20 am — Dec 5 2:20 am, Celle, Weather by CustomWeather, © 2016

Note: Actual official high and low records may vary slightly from our data, if they occured in-between our weather recording intervals... More about our weather records

Advertising

Celle Weather History for the Previous 24 Hours

Scroll right to see more
 ConditionsComfort  
Time TempWeatherWind HumidityBarometerVisibility
2:20 am
Mon, Dec 5
21 °FIce fog.2 mph100%30.39 "Hg3 mi
1:20 am23 °FIce fog.2 mph93%30.39 "Hg2 mi
12:20 am21 °FIce fog.2 mph93%30.39 "Hg2 mi
11:20 pm
Sun, Dec 4
21 °FIce fog.No wind93%30.42 "Hg1 mi
10:20 pm23 °FIce fog.3 mph100%30.42 "Hg1 mi
9:20 pm23 °FIce fog.2 mph93%30.42 "Hg1 mi
8:20 pm23 °FIce fog.3 mph100%30.42 "Hg1 mi
7:20 pm25 °FLight fog.2 mph100%30.42 "Hg1 mi
6:20 pm25 °FLight fog.2 mph93%30.42 "Hg1 mi
5:50 pm27 °FLight fog.2 mph100%30.42 "Hg1 mi
5:20 pm27 °FPassing clouds.2 mph100%30.42 "Hg4 mi
4:20 pm30 °FPassing clouds.2 mph93%30.42 "Hg5 mi
3:20 pm34 °FPartly sunny.2 mph87%30.42 "HgN/A
2:20 pm34 °FPartly sunny.2 mph87%30.42 "HgN/A
1:20 pm34 °FPartly sunny.2 mph87%30.42 "Hg6 mi
12:20 pm30 °FPartly sunny.2 mph93%30.42 "Hg5 mi
11:20 am27 °FPartly sunny.2 mph100%30.45 "Hg4 mi
10:20 am23 °FPartly sunny.No wind100%30.45 "Hg4 mi
9:20 am21 °FIce fog.No wind100%30.42 "Hg1 mi
8:45 am21 °FIce fog.No wind93%30.42 "Hg1 mi
8:20 am21 °FIce fog.No wind93%30.42 "Hg0 mi
7:20 am19 °FIce fog.No wind93%30.39 "Hg0 mi
6:20 am19 °FIce fog.No wind93%30.39 "Hg2 mi
5:20 am19 °FIce fog.No wind93%30.39 "Hg2 mi
4:20 am19 °FIce fog.No wind93%30.39 "Hg2 mi
3:20 am21 °FIce fog.No wind93%30.39 "Hg2 mi
Weather by CustomWeather, © 2016

See weather overviewHow to use our weather pages